Location: Grasslands National Park East Block
(49.0708°N, 106.5295°W)
Time: 04:57:27
(UTC-06:00)

Vanguard 1 - Pass Details

Date: 28 September 2019
Orbit: 653 x 3830 km, 34.2° (Epoch: 17 October)

Event Time Altitude Azimuth Distance (km) Brightness Sun altitude
Rises 03:17:42 0° 252° (WSW) 7,515 - -34.1°
Reaches altitude 10° 03:22:40 10° 248° (WSW) 6,711 - -33.6°
Exits shadow 03:37:20 43° 220° (SW) 4,711 12.9 -31.8°
Maximum altitude 03:44:35 53° 181° (S) 4,232 12.9 -30.9°
Drops below altitude 10° 04:02:42 10° 112° (ESE) 5,668 14.3 -28.5°
Sets 04:06:27 0° 107° (ESE) 6,335 14.7 -28.0°
